Probability
0 0 0 0 0 0 0 0 0 0 0 0 0 0 0 0 0 0 0 0 0 0 0 0 0 0 0 0 0 0 0 0 0 0 0 0 0 0 0 0 0 0 0 0 0 0 0 0 0
0 0 0 0 0 0 0 0 0 0 0 0 0 0 0 0 0 0 0 0 0 0 0 0 0 0 0 0 0 0 0 0 0 0 0 0 0 0 0 0 0 0 0 0 0 0 0 0 0
0 0 0 0 0 0 0 0 0 0 0 0 0 0 0 0 0 0 0 0 0 0 0 0 0 0 0 0 0 0 0 0 0 0 0 0 0 0 0 0 0 0 0 0 0 0 0 0 0
0 0 0 0 0 0 0 0 0 0 0 0 0 0 0 0 0 0 0 0 0 0 0 0 0 0 0 0 0 0 0 0 0 0 0 0 0 0 0 0 0 0 0 0 0 0 0 0 0
0 0 0 0 0 0 0 0 0 0 0 0 0 0 0 0 0 0 0 0 0 0 0 0 0 0 0 0 0 0 0 0 0 0 0 0 0 0 0 0 0 0 0 0 0 0 0 0 0
0 0 0 0 0 0 0 0 0 0 0 0 0 0 0 0 0 0 0 0 0 0 0 0 0 0 0 0 0 0 0 0 0 0 0 0 0 0 0 0 0 0 0 0 0 0 0 0 0
0 0 0 0 0 0 0 0 0 0 0 0 0 0 0 0 0 0 0 0 0 0 0 0 0 0 0 0 0 0 0 0 0 0 0 0 0 0 0 0 0 0 0 0 0 0 0 0 0
0 0 0 0 0 0 0 0 0 0 0 0 0 0 0 0 0 0 0 0 0 0 0 0 0 0 0 0 0 0 0 0 0 0 0 0 0 0 0 0 0 0 0 0 0 0 0 0 0
0 0 0 0 0 0 0 0 0 0 0 0 0 0 0 0 0 0 0 0 0 0 0 0 0 0 0 0 0 0 0 0 0 0 0 0 0 0 0 0 0 0 0 0 0 0 0 0 0
0 0 0 0 0 0 0 0 0 0 0 0 0 0 0 0 0 0 0 0 0 0 0 0 0 0 0 0 0 0 0 0 0 0 0 0 0 0 0 0 0 0 0 0 0 0 0 0 0
0 0 0 0 0 0 0 0 0 0 0 0 0 0 0 0 0 0 0 0 0 0 0 0 0 0 0 0 0 0 0 0 0 0 0 0 0 0 0 0 0 0 0 0 0 0 0 0 0
0 0 0 0 0 0 0 0 0 0 0 0 0 0 0 0 0 0 0 0 0 0 0 0 0 0 0 0 0 0 0 0 0 0 0 0 0 0 0 0 0 0 0 0 0 0 0 0 0
0 0 0 0 0 0 0 0 0 0 0 0 0 0 0 0 0 0 0 0 0 0 0 0 0 0 0 0 0 0 0 0 0 0 0 0 0 0 0 0 0 0 0 0 0 0 0 0 0
0 0 0 0 0 0 0 0 0 0 0 0 0 0 0 0 0 0 0 0 0 0 0 0 0 0 0 0 0 0 0 0 0 0 0 0 0 0 0 0 0 0 0 0 0 0 0 0 0
0 0 0 0 0 0 0 0 0 0 0 0 0 0 0 0 0 0 0 0 0 0 0 0 0 0 0 0 0 0 0 0 0 0 0 0 0 0 0 0 0 0 0 0 0 0 0 0 0
0 0 0 0 0 0 0 0 0 0 0 0 0 0 0 0 0 0 0 0 0 0 0 0 0 0 0 0 0 0 0 0 0 0 0 0 0 0 0 0 0 0 0 0 0 0 0 0 0
0 0 0 0 0 0 0 0 0 0 0 0 0 0 0 0 0 0 0 0 0 0 0 0 0 0 0 0 0 0 0 0 0 0 0 0 0 0 0 0 0 0 0 0 0 0 0 0 0
0 0 0 0 0 0 0 0 0 0 0 0 0 0 0 0 0 0 0 0 0 0 0 0 0 0 0 0 0 0 0 0 0 0 0 0 0 0 0 0 0 0 0 0 0 0 0 0 0
0 0 0 0 0 0 0 0 0 0 0 0 0 0 0 0 0 0 0 0 0 0 0 0 0 0 0 0 0 0 0 0 0 0 0 0 0 0 0 0 0 0 0 0 0 0 0 0 0
0 0 0 0 0 0 0 0 0 0 0 0 0 0 0 0 0 0 0 0 0 0 0 0 0 0 0 0 0 0 0 0 0 0 0 0 0 0 0 0 0 0 0 0 0 0 0 0 0
0 0 0 0 0 0 0 0 0 0 0 0 0 0 0 0 0 0 0 0 0 0 0 0 0 0 0 0 0 0 0 0 0 0 0 0 0 0 0 0 0 0 0 0 0 0 0 0 0
0 0 0 0 0 0 0 0 0 0 0 0 0 0 0 0 0 0 0 0 0 0 0 0 0 0 0 0 0 0 0 0 0 0 0 0 0 0 0 0 0 0 0 0 0 0 0 0 0
0 0 0 0 0 0 0 0 0 0 0 0 0 0 0 0 0 0 0 0 0 0 0 0 0 0 0 0 0 0 0 0 0 0 0 0 0 0 0 0 0 0 0 0 0 0 0 0 0
0 0 0 0 0 0 0 0 0 0 0 0 0 0 0 0 0 0 0 0 0 0 0 0 0 0 0 0 0 0 0 0 0 0 0 0 0 0 0 0 0 0 0 0 0 0 0 0 0
0 0 0 0 0 0 0 0 0 0 0 0 0 0 0 0 0 0 0 0 0 0 0 0 0 0 0 0 0 0 0 0 0 0 0 0 0 0 0 0 0 0 0 0 0 0 0 0 0
0 0 0 0 0 0 0 0 0 0 0 0 0 0 0 0 0 0 0 0 0 0 0 0 0 0 0 0 0 0 0 0 0 0 0 0 0 0 0 0 0 0 0 0 0 0 0 0 0
0 0 0 0 0 0 0 0 0 0 0 0 0 0 0 0 0 0 0 0 0 0 0 0 0 0 0 0 0 0 0 0 0 0 0 0 0 0 0 0 0 0 0 0 0 0 0 0 0
0 0 0 0 0 0 0 0 0 0 0 0 0 0 0 0 0 0 0 0 0 0 0 0 0 0 0 0 0 0 0 0 0 0 0 0 0 0 0 0 0 0 0 0 0 0 0 0 0
0 0 0 0 0 0 0 0 0 0 0 0 0 0 0 0 0 0 0 0 0 0 0 0 0 0 0 0 0 0 0 0 0 0 0 0 0 0 0 0 0 0 0 0 0 0 0 0 0
0 0 0 0 0 0 0 0 0 0 0 0 0 0 0 0 0 0 0 0 0 0 0 0 0 0 0 0 0 0 0 0 0 0 0 0 0 0 0 0 0 0 0 0 0 0 0 0 0
Wind_Speed
11 5 3 5 7 6 1 1 1 1 1 1 2 4 6 5 4 2 2 5 7 7 5 6 9 11 12 12 12 12 13 14 15 15 15 15 15 15 15 15 15 15 15 16 16 17 17 17 17
5 4 6 6 6 2 2 2 2 2 4 4 3 3 3 1 1 5 4 5 8 7 5 6 9 11 12 12 11 12 13 14 15 15 15 15 15 15 15 14 14 14 15 15 16 16 16 16 16
4 5 6 5 4 4 3 3 3 2 3 3 3 2 2 3 4 5 4 8 7 6 5 7 9 11 12 12 11 11 12 13 14 15 15 15 14 14 14 13 13 13 14 15 15 15 16 16 16
4 6 6 5 1 3 4 3 3 4 2 2 4 3 1 0 4 5 8 9 8 6 5 7 9 11 11 11 11 12 12 13 14 14 14 14 14 13 13 13 13 13 13 14 14 14 15 15 15
5 5 5 2 2 3 3 2 4 4 3 2 4 4 1 3 3 9 10 9 9 6 5 6 9 10 10 11 12 12 12 13 13 14 14 13 13 13 12 12 12 12 12 13 14 14 14 14 14
5 5 4 1 3 3 2 3 3 2 3 3 5 5 1 1 7 10 9 8 7 7 6 6 9 9 9 10 10 11 11 12 12 13 13 13 13 12 12 11 11 11 12 12 12 12 13 13 13
4 4 3 3 2 3 2 3 4 4 4 6 6 5 1 3 6 8 8 7 6 6 6 5 6 6 8 9 9 10 10 10 11 12 12 11 11 11 11 10 11 11 11 11 11 11 11 11 11
4 4 2 2 3 4 2 2 2 5 3 3 5 6 5 6 8 8 7 7 7 6 6 5 5 5 5 6 9 10 10 10 10 11 10 10 10 9 9 8 9 10 10 10 10 10 10 10 10
3 4 4 5 6 4 1 1 1 2 5 2 1 2 2 10 12 11 8 8 8 8 6 6 6 5 5 5 7 8 9 9 9 9 10 8 5 5 5 6 8 9 9 9 9 9 9 8 8
3 4 7 5 5 3 2 3 3 3 2 2 1 0 5 12 15 15 13 13 13 12 10 7 7 6 5 4 4 4 4 5 5 4 5 4 4 3 4 6 7 7 6 6 8 8 8 6 3
4 6 4 4 3 2 2 2 3 6 4 7 8 7 10 13 15 15 14 13 13 11 11 9 8 7 6 4 4 3 3 3 4 5 5 4 3 3 3 2 3 3 4 3 4 4 3 3 2
3 4 3 3 1 2 3 2 3 6 8 5 6 10 14 17 18 18 17 14 11 11 12 10 9 8 7 6 5 4 3 3 3 4 5 4 3 3 2 2 2 2 1 2 2 2 2 2 2
4 3 3 3 2 2 2 3 4 6 5 1 5 10 15 18 17 15 11 10 11 12 13 12 11 10 8 7 5 6 5 5 5 4 5 5 4 4 3 2 2 2 2 2 2 2 2 2 1
5 4 3 3 3 2 4 5 3 8 2 3 6 11 14 16 16 12 11 13 14 14 14 12 12 11 10 8 7 6 5 5 5 5 6 6 5 4 4 3 3 2 2 2 2 2 2 1 1
2 2 4 4 3 3 2 7 9 8 3 5 7 9 11 12 11 14 16 16 15 13 13 13 13 12 12 10 9 6 6 6 6 5 6 6 6 6 5 4 4 3 3 3 2 1 1 1 1
3 3 6 5 5 4 6 12 9 5 6 8 8 8 10 12 13 13 12 12 11 11 12 13 11 13 13 11 9 6 6 7 6 5 6 7 7 7 5 5 5 4 3 3 3 2 2 2 2
5 8 8 4 5 5 8 10 7 5 8 9 9 9 10 11 12 13 12 12 12 12 12 13 13 14 14 11 8 7 6 7 6 6 6 7 8 8 6 5 5 5 4 4 3 3 3 3 2
8 7 6 8 4 6 8 11 9 5 7 9 9 9 10 12 16 14 13 13 11 11 12 13 13 13 12 9 7 6 7 7 6 7 8 9 8 9 8 6 6 6 4 4 4 4 3 3 2
5 6 7 6 4 6 10 14 14 10 8 10 10 10 11 14 13 10 11 11 10 11 13 14 15 14 12 10 11 10 11 9 8 9 10 11 10 10 9 7 7 7 7 7 6 4 4 3 3
8 9 8 4 4 6 7 14 13 12 12 12 13 14 13 12 10 9 10 11 14 15 16 16 17 15 15 13 11 8 7 7 8 7 9 11 12 11 10 10 8 8 7 7 7 6 4 3 4
13 13 10 5 0 2 4 11 13 11 11 12 12 12 12 14 14 13 11 13 14 16 18 17 18 18 17 14 7 5 5 4 7 9 11 12 13 12 12 12 10 9 9 9 9 9 8 6 5
18 10 8 6 4 5 5 11 11 10 13 15 16 14 15 15 15 13 12 13 15 18 17 18 18 18 17 15 13 14 14 14 15 10 9 10 13 13 13 12 12 11 10 10 10 10 8 7 6
6 8 9 8 7 7 6 10 11 7 14 15 15 16 17 17 16 16 15 15 15 15 15 16 17 17 16 17 18 17 16 14 9 8 9 11 11 13 14 13 12 12 11 11 10 10 11 9 8
6 5 3 5 7 16 17 13 14 11 16 10 11 14 16 16 15 15 14 12 12 12 12 13 15 17 17 18 19 20 20 17 12 11 12 11 10 11 14 14 14 13 12 12 12 11 13 11 11
10 8 7 9 11 14 10 13 17 10 11 13 13 13 14 14 14 14 13 12 12 12 13 14 16 17 17 18 20 21 21 19 19 16 14 12 10 11 14 15 14 14 14 13 12 12 12 13 12
19 16 12 9 8 5 7 17 14 8 10 10 12 12 12 13 12 13 13 13 13 13 13 14 16 17 17 18 20 19 19 15 14 16 13 13 12 12 12 14 14 15 14 13 12 11 13 11 13
14 17 11 4 2 4 8 10 12 5 7 9 11 11 13 13 12 13 12 11 11 11 12 14 15 16 16 17 17 17 18 17 16 15 14 11 11 9 11 13 14 15 14 14 13 12 13 12 13
10 9 7 11 10 11 8 10 12 7 11 11 11 13 14 12 12 12 10 10 10 10 10 10 13 15 15 15 15 14 16 17 16 13 13 13 13 11 11 13 14 14 14 14 14 13 12 13 13
12 13 10 8 7 8 9 12 10 11 11 12 14 13 12 12 12 11 10 8 8 7 7 8 10 11 11 12 13 13 14 14 14 13 14 13 12 12 13 13 14 14 15 14 14 15 13 15 14
11 14 15 13 11 8 9 14 5 7 8 9 11 11 11 11 10 8 8 6 6 6 7 8 9 10 11 11 11 13 12 12 13 14 14 13 13 12 13 13 13 14 14 14 15 15 15 15 15
Wind_Direction
333 349 47 51 53 51 61 267 193 152 145 69 115 134 147 150 162 171 120 134 130 133 137 131 126 125 122 119 117 114 115 114 111 108 106 103 100 97 95 94 94 94 93 91 90 89 89 88 87
333 4 46 55 79 74 280 258 196 187 154 128 82 94 105 120 99 122 135 144 134 132 126 126 126 127 126 124 122 120 119 117 115 112 110 107 104 102 99 97 97 97 95 92 91 92 92 90 89
3 46 69 68 98 169 212 221 189 111 138 130 98 72 126 166 154 156 156 140 126 123 122 130 130 132 131 128 125 123 122 120 118 116 114 110 107 104 102 100 99 98 96 94 93 93 94 93 91
37 38 53 70 132 217 220 214 172 130 128 101 123 104 71 60 169 162 140 135 127 124 125 136 135 136 135 132 130 128 125 123 121 118 116 113 110 106 104 102 100 99 98 96 96 95 97 96 95
52 66 56 39 282 271 251 207 163 159 159 134 131 131 142 349 122 134 138 138 137 133 130 138 137 137 136 135 133 130 127 126 124 121 118 117 115 112 109 106 105 104 102 100 100 99 100 100 99
50 63 87 228 275 292 265 165 152 157 145 143 138 134 188 82 141 146 142 141 142 140 135 135 137 136 136 135 134 131 129 128 126 124 122 122 120 118 115 112 111 109 107 105 103 102 104 104 103
97 98 160 200 256 284 246 155 167 164 170 191 161 135 203 175 163 146 136 134 137 138 134 131 135 136 137 135 132 131 129 128 127 125 123 121 121 121 118 117 117 116 113 110 107 106 108 110 108
119 111 152 203 209 250 241 164 179 165 179 138 144 154 203 186 151 133 129 139 146 147 143 139 136 133 131 131 132 130 128 126 124 121 119 117 117 118 118 117 122 123 120 118 113 110 113 113 113
95 104 198 208 198 234 204 154 102 110 120 143 214 208 209 140 144 146 151 163 169 171 165 154 148 142 138 135 138 133 131 130 126 123 123 115 107 108 114 124 125 126 125 123 118 113 110 106 107
115 177 216 208 197 213 206 188 174 123 135 197 230 96 127 146 162 170 176 181 184 185 181 173 165 157 150 146 137 134 131 132 129 129 127 120 120 123 123 129 126 120 118 121 119 113 103 96 89
170 201 219 225 215 212 209 216 174 149 201 211 200 178 155 166 176 185 189 190 191 187 187 184 176 168 163 155 154 149 139 137 140 142 139 131 125 124 117 115 113 106 101 89 93 89 85 97 105
192 232 227 243 214 200 216 201 194 194 218 222 196 164 167 177 188 194 196 194 188 188 193 190 183 178 175 167 169 167 161 160 163 163 155 146 145 148 148 143 141 130 119 121 104 102 99 103 115
212 241 248 259 257 235 232 231 230 241 249 246 142 158 180 188 198 202 200 193 190 195 196 195 189 187 182 177 181 182 181 179 176 173 173 166 165 170 170 170 166 164 152 150 142 134 128 125 132
212 231 268 265 243 227 221 255 233 250 210 164 166 182 194 198 200 197 197 199 199 201 199 194 195 192 187 188 191 189 188 184 181 184 185 179 175 176 176 181 184 186 179 172 169 171 161 160 159
157 235 279 249 216 222 190 264 233 235 180 200 204 204 207 212 205 206 205 205 204 203 198 195 196 193 193 194 196 192 191 188 191 193 190 188 184 183 182 185 194 196 185 177 171 174 154 179 191
138 196 240 234 193 200 177 249 251 218 193 221 222 218 219 221 218 218 214 211 206 200 198 198 196 197 199 198 195 195 193 195 198 194 193 196 193 187 185 191 201 191 178 176 178 176 182 207 211
188 216 223 236 203 184 194 242 253 212 201 227 228 223 222 228 231 227 219 214 207 203 200 199 199 199 201 199 195 196 196 201 201 196 197 199 198 193 191 198 199 184 182 186 186 187 184 200 213
191 203 206 212 212 188 217 243 255 243 217 233 237 233 228 229 232 227 220 216 210 205 202 202 202 202 199 197 195 198 205 209 205 203 205 199 200 197 196 201 196 183 186 193 192 194 193 197 195
174 184 209 216 206 199 233 247 252 245 237 243 243 238 236 237 240 231 220 213 207 205 205 205 204 203 197 199 203 206 212 211 210 210 207 203 201 198 199 202 196 192 199 202 193 186 194 204 163
210 219 223 238 208 210 250 258 254 241 233 230 234 237 237 240 244 233 218 209 208 210 210 210 209 204 202 206 205 206 205 210 212 209 209 207 206 202 202 204 202 199 202 202 196 189 187 194 173
217 219 215 209 270 246 294 276 250 248 236 238 234 234 236 233 237 236 224 214 211 213 212 211 211 209 206 204 193 188 191 199 205 211 214 211 208 206 206 206 204 201 202 208 205 199 196 203 198
225 207 199 200 203 238 204 267 252 237 243 238 237 234 236 237 235 233 227 221 215 216 213 212 212 210 207 200 199 200 207 216 218 214 213 207 206 208 209 208 207 206 207 211 208 203 203 197 204
201 164 189 208 219 246 217 253 264 214 242 239 232 232 234 235 233 234 230 226 221 216 211 212 212 211 206 202 204 207 215 221 217 205 208 209 208 209 210 210 210 211 212 213 209 203 205 207 209
146 129 170 203 220 241 226 230 262 209 226 232 230 230 233 235 235 237 235 230 226 217 211 209 209 212 207 204 206 209 215 217 211 207 212 213 212 211 212 212 213 215 215 215 213 211 210 213 215
168 171 201 209 215 237 199 215 251 213 209 214 223 228 230 231 233 235 235 229 226 218 212 209 208 213 209 206 208 211 215 215 216 215 215 212 212 215 215 211 215 217 219 218 213 212 216 215 216
194 194 206 213 214 238 180 223 248 212 214 219 226 232 235 236 234 235 234 230 228 224 215 210 210 213 209 208 211 213 214 216 219 219 216 214 217 218 212 209 215 217 217 217 214 216 219 218 220
188 207 210 219 206 241 232 257 288 240 236 234 236 238 242 242 239 239 239 234 231 227 219 212 213 215 211 209 210 212 213 215 218 217 216 217 217 214 208 208 212 216 217 217 216 221 221 219 222
190 171 176 208 215 233 240 237 241 222 223 229 232 235 241 242 243 245 242 237 233 229 224 216 214 215 213 210 210 212 213 215 218 217 216 216 216 211 207 208 211 214 216 217 218 223 223 222 223
182 193 202 209 206 214 243 248 223 216 213 217 225 231 236 241 242 244 244 242 240 235 223 217 216 216 213 211 212 213 214 214 215 218 220 219 218 212 212 211 212 214 216 216 218 222 219 223 225
199 203 200 214 218 217 242 258 225 206 216 219 230 236 241 245 247 247 250 251 244 235 226 221 217 216 216 211 210 214 215 212 213 218 220 218 218 215 215 213 214 215 216 215 217 221 221 223 225